[[[{"header":{"parameterUnit":"kt","parameterCategory":2,"dx":1,"dy":1,"la1":30.253999710083008,"la2":30.299108505249023,"lo1":-89.0895004272461,"lo2":-89.04439544677734,"nx":28,"ny":28,"refTime":"2022-10-15T21:00:00:Z","depth":0,"parameterNumber":1,"parameterNumberName":"U-component_of_WINDS"},"data":[-4.2128,-4.2251,-4.2264,-4.2411,-4.2447,-4.255,-4.2591,-4.2646,-4.2692,-4.2817,-4.2892,-4.2918,-4.2971,-4.3063,-4.3145,-4.3155,-4.3189,-4.3223,-4.3229,-4.3065,-4.3043,-4.3023,-4.2994,-4.323,-4.323,-4.3398,-4.3399,-4.34,-4.2004,-4.2041,-4.2123,-4.221,-4.228,-4.2255,-4.2323,-4.2384,-4.2477,-4.2536,-4.261,-4.2722,-4.2812,-4.2854,-4.2944,-4.3002,-4.2997,-4.3026,-4.3022,-4.3031,-4.2856,-4.2825,-4.3029,-4.3029,-4.3029,-4.3029,-4.3029,-4.3029,-4.1783,-4.1857,-4.1917,-4.2006,-4.2054,-4.2113,-4.2186,-4.2216,-4.2297,-4.2391,-4.2391,-4.2498,-4.256,-4.2675,-4.2717,-4.28,-4.2771,-4.2808,-4.2817,-4.2827,-4.2835,-4.2592,-4.2816,-4.2816,-4.2815,-4.2815,-4.2814,0,-4.1625,-4.1631,-4.171,-4.1793,-4.1859,-4.1925,-4.1988,-4.2034,-4.2052,-4.2118,-4.2215,-4.2274,-4.2389,-4.2483,-4.257,-4.2607,-4.259,-4.2589,-4.2615,-4.2617,-4.2606,-4.2614,-4.2328,-4.2583,-4.2581,-4.258,-4.2579,-4.2578,-4.1404,-4.1488,-4.1558,-4.1612,-4.165,-4.1738,-4.1793,-4.1802,-4.186,-4.194,-4.2005,-4.2099,-4.2174,-4.2329,-4.2365,-4.2453,-4.2445,-4.2541,-4.2459,-4.2456,-4.2448,-4.2443,-4.2452,-4.2558,-4.256,-4.2562,-4.2564,0,-4.1278,-4.1299,-4.1434,-4.1496,-4.1514,-4.1602,-4.1655,-4.173,-4.1752,-4.1858,-4.1883,-4.1919,-4.2015,-4.2036,-4.215,-4.2158,-4.2306,-4.2296,-4.2284,-4.2283,-4.2372,-4.2364,-4.2655,-4.2693,-4.2448,-4.245,-4.2452,0,-4.1098,-4.1209,-4.1234,-4.1312,-4.1435,-4.1442,-4.1564,-4.1595,-4.1649,-4.1733,-4.1715,-4.1794,-4.1809,-4.1891,-4.1904,-4.2028,-4.2049,-4.2063,-4.2066,-4.2066,-4.2064,-4.2098,-4.2087,-4.2066,-4.2065,-4.2064,-4.2062,0,-4.09,-4.1044,-4.1169,-4.1206,-4.1283,-4.1343,-4.1378,-4.1438,-4.1493,-4.1567,-4.1602,-4.1688,-4.1736,-4.1803,-4.1818,-4.1761,-4.197,-4.1895,-4.1985,-4.1985,-4.2031,-4.2028,-4.2279,-4.2061,-4.206,-4.206,-4.2059,0,-4.0758,-4.0832,-4.1011,-4.1075,-4.1113,-4.1196,-4.1281,-4.1357,-4.1422,-4.1435,-4.1494,-4.1485,-4.1595,-4.1519,-4.1671,-4.1592,-4.164,-4.1664,-4.1671,-4.1683,-4.1598,-4.1738,-4.1973,-4.1999,-4.1692,-4.1689,-4.1687,0,-4.0526,-4.0713,-4.072,-4.0891,-4.098,-4.0954,-4.1047,-4.1105,-4.113,-4.121,-4.1237,-4.1329,-4.1277,-4.1309,-4.1381,-4.1414,-4.1516,-4.14,-4.1518,-4.1522,-4.1501,-4.1718,-4.1749,-4.1919,-4.1648,-4.1652,-4.1655,0,-4.0349,-4.0441,-4.0472,-4.0513,-4.0591,-4.0666,-4.0773,-4.0865,-4.0917,-4.0985,-4.1075,-4.1205,-4.1171,-4.1224,-4.1226,-4.1301,-4.1447,-4.1255,-4.1256,-4.1289,-4.163,-4.1658,-4.1687,-4.1432,-4.1437,-4.1441,-4.1624,0,-4.0131,-4.0228,-4.0309,-4.0403,-4.0464,-4.0572,-4.0594,-4.0655,-4.0651,-4.0675,-4.0808,-4.0863,-4.0958,-4.0995,-4.0993,-4.1155,-4.1132,-4.1095,-4.1024,-4.1166,-4.1227,-4.1252,-4.0931,-4.0929,-4.0927,-4.0926,0,0,-3.9904,-4.0043,-4.0047,-4.0151,-4.0203,-4.0175,-4.0289,-4.0336,-4.0434,-4.0471,-4.0431,-4.0621,-4.0668,-4.0828,-4.0874,-4.0913,-4.0944,-4.0894,-4.1098,-4.1117,-4.1135,-4.12,-4.1225,-4.0923,-4.0923,-4.0922,-4.0921,0,-3.983,-3.9875,-3.9987,-4.0036,-4.0109,-4.0129,-4.0155,-4.0223,-4.0244,-4.0375,-4.0351,-4.0434,-4.0587,-4.0639,-4.0686,-4.0875,-4.0853,-4.0902,-4.0996,-4.108,-4.1102,-4.1121,-4.1188,-4.1213,-4.0917,-4.0918,-4.0918,0,-3.966,-3.9708,-3.9765,-3.9881,-3.9929,-4.0022,-3.9952,-4.0053,-4.0123,-4.0089,-4.0219,-4.0253,-4.0325,-4.0473,-4.0541,-4.0507,-4.0769,-4.0691,-4.0702,-4.071,-4.0793,-4.0819,-4.0841,-4.0542,-4.0541,-4.054,0,0,-3.9592,-3.9682,-3.9738,-3.9867,-3.9898,-3.9929,-3.9981,-3.9982,-4.0047,-4.0073,-4.0116,-4.0181,-4.0269,-4.0328,-4.0413,-4.0572,-4.0588,-4.0643,-4.0661,-4.0675,-4.0692,-4.0779,-4.0804,-4.0534,-4.0534,-4.0534,0,0,-3.9561,-3.963,-3.9614,-3.9766,-3.9827,-3.9893,-3.9971,-3.9953,-4.0031,-4.0022,-4.003,-4.0047,-4.0186,-4.0221,-4.0147,-4.0388,-4.0317,-4.0335,-4.036,-4.0383,-4.0401,-4.039,-4.0084,0,0,0,0,0,-3.9495,-3.9621,-3.9606,-3.9634,-3.9782,-3.9901,-3.992,-3.9929,-3.9878,-3.9939,-3.9972,-3.9946,-4.0183,-4.0117,-4.0146,-4.0229,-4.0466,-4.0478,-4.049,-4.056,-4.0583,-4.0603,0,0,0,0,0,0,-3.9507,-3.9542,-3.9602,-3.9672,-3.9706,-3.9896,-3.9812,-3.9818,-3.9871,-3.9864,-3.994,-3.9948,-3.9959,-4.0103,-4.0129,-4.0208,-4.0076,-4.0471,-4.0481,-4.049,-4.0568,-4.0587,-4.0604,0,0,0,0,0,-3.9516,-3.9544,-3.9778,-3.9671,-3.97,-3.9741,-3.9807,-3.9811,-3.9853,-3.9905,-3.9912,-3.9855,-3.9961,-3.9983,-4.0119,-4.0196,-4.0058,-4.0067,-4.0477,-4.0486,-4.0493,-4.0577,0,0,0,0,0,0,-3.9522,-3.9549,-3.9784,-3.9794,-3.9624,-3.9731,-3.9748,-3.9806,-3.9891,-3.9899,-3.982,-3.9813,-3.9964,-3.9981,-3.9998,-4.0191,-4.0043,-4.0053,-4.0059,-4.0484,-4.049,-4.0496,0,0,0,0,0,0,-3.9534,-3.9557,-3.9789,-3.9729,-3.9732,-3.9721,-3.9736,-3.9853,-3.9892,-3.9801,-3.9798,-3.9816,-3.9938,-3.998,-3.9993,-4.0175,-4.0032,-4.0041,-4.0048,-4.0052,-4.0489,-4.0494,0,0,0,0,0,0,-3.9544,-3.9564,-3.9727,-3.9729,-3.9731,-3.9835,-3.9824,-3.9976,-3.984,-3.9797,-3.9828,-3.9822,-3.9938,-3.9951,-3.999,-4.0166,-4.0172,-4.0032,-4.0039,-4.0043,-4.0046,0,0,0,0,0,0,0,-3.9552,-3.9417,-3.973,-3.9729,-3.973,-3.9878,-3.9881,-3.9883,-3.9838,-3.9834,-3.9829,-3.9825,-3.9978,-3.9988,-3.9999,-4.0158,0,0,-4.0031,-4.0036,0,0,0,0,0,0,0,0,-3.9409,-3.9415,-3.973,-3.9732,-3.9734,-3.9879,-3.9881,-3.9883,-3.9838,-3.9834,-3.983,-3.9826,-3.9981,-3.9989,-3.9998,0,0,0,0,0,0,0,0,0,0,0,0,0,0,0,-3.973,-3.9732,0,-3.9879,-3.9881,-3.9883,-3.9837,-3.9834,-3.9831,-3.9828,-3.9983,-3.999,-3.9997,0,0,0,0,0,0,0,0,0,0,0,0,0,0,0,0,0,0,0,0,0,0,0,0,0,0,0,0,0,0,0,0,0,0,0,0,0,0,0,0,0,0,0,0,0,0,0,0,0,0,0,0,0,0,0,0,0,0,0,0,0,0,0,0,0,0,0,0,0]}],[{"header":{"parameterUnit":"kt","parameterCategory":2,"dx":1,"dy":1,"la1":30.253999710083008,"la2":30.299108505249023,"lo1":-89.0895004272461,"lo2":-89.04439544677734,"nx":28,"ny":28,"refTime":"2022-10-15T21:00:00:Z","depth":0,"parameterNumber":2,"parameterNumberName":"V-component_of_WINDS"},"data":[2.8418,2.8465,2.8455,2.8503,2.8502,2.8533,2.8541,2.8549,2.8553,2.8588,2.8607,2.86,2.8599,2.8618,2.8636,2.8633,2.8641,2.8666,2.8657,2.8557,2.8542,2.8528,2.8516,2.8668,2.8668,2.8762,2.8763,2.8764,2.8347,2.8347,2.837,2.8384,2.8403,2.8373,2.8382,2.84,2.8428,2.8433,2.845,2.848,2.8501,2.8491,2.851,2.8531,2.8517,2.8537,2.8534,2.8534,2.8427,2.8414,2.8548,2.8548,2.8547,2.8547,2.8547,2.8547,2.8215,2.8244,2.8246,2.827,2.8274,2.8284,2.8309,2.83,2.8321,2.834,2.8322,2.8353,2.8355,2.8371,2.8374,2.8397,2.8373,2.839,2.8395,2.8399,2.8406,2.8272,2.84,2.8399,2.8399,2.8399,2.8398,0,2.8115,2.8104,2.8124,2.8142,2.8159,2.8171,2.818,2.8195,2.8166,2.8185,2.821,2.8223,2.8248,2.827,2.8284,2.8283,2.8252,2.8247,2.8259,2.8268,2.8275,2.8271,2.8096,2.8243,2.8242,2.8241,2.824,2.8239,2.798,2.8015,2.8011,2.8027,2.8029,2.8055,2.8067,2.8039,2.8054,2.806,2.8086,2.8108,2.8124,2.8166,2.8153,2.8172,2.8156,2.8214,2.8159,2.8166,2.8156,2.8155,2.8158,2.8225,2.8227,2.8228,2.8229,0,2.7906,2.7887,2.7936,2.7928,2.7927,2.7964,2.7957,2.7984,2.7971,2.8006,2.8012,2.7993,2.8018,2.7995,2.8019,2.8007,2.8067,2.8052,2.8066,2.8062,2.8111,2.8106,2.8274,2.8294,2.8137,2.8138,2.814,0,2.7783,2.7829,2.7797,2.7827,2.7877,2.7846,2.7896,2.789,2.7891,2.7918,2.7879,2.7905,2.7872,2.7895,2.7876,2.7922,2.7926,2.7919,2.7913,2.7922,2.7923,2.7928,2.792,2.79,2.7899,2.7898,2.7897,0,2.7667,2.7703,2.7751,2.7756,2.7751,2.7774,2.7773,2.7773,2.7786,2.7798,2.7805,2.7822,2.7831,2.7844,2.782,2.7783,2.7875,2.7819,2.7867,2.7868,2.7887,2.7886,2.8041,2.7896,2.7896,2.7896,2.7895,0,2.7564,2.7578,2.765,2.7644,2.7655,2.7686,2.77,2.7722,2.7724,2.7714,2.7723,2.7694,2.7732,2.7678,2.773,2.7689,2.77,2.7696,2.7699,2.77,2.7641,2.773,2.7881,2.7896,2.7703,2.7701,2.77,0,2.7437,2.7504,2.7478,2.7546,2.7574,2.7528,2.7562,2.7565,2.7554,2.7576,2.7564,2.7588,2.7544,2.7548,2.7576,2.7565,2.7618,2.7557,2.7587,2.7589,2.7588,2.7726,2.7754,2.7851,2.7679,2.7681,2.7683,0,2.7335,2.7328,2.7342,2.7346,2.7345,2.7368,2.7407,2.7424,2.744,2.7447,2.7479,2.7512,2.748,2.7487,2.7464,2.7495,2.7581,2.7456,2.7455,2.7479,2.7666,2.7693,2.7709,2.7559,2.7561,2.7563,2.7666,0,2.7183,2.7213,2.725,2.726,2.7274,2.7315,2.729,2.7308,2.7285,2.7272,2.7318,2.7313,2.733,2.7342,2.7319,2.7397,2.738,2.7345,2.729,2.7382,2.7415,2.7428,2.7243,2.7241,2.724,2.7239,0,0,2.7065,2.7108,2.7077,2.7113,2.7123,2.7073,2.712,2.7123,2.7131,2.7138,2.7108,2.7154,2.7151,2.7209,2.7236,2.7243,2.7254,2.7223,2.7339,2.735,2.736,2.7396,2.7411,2.7236,2.7236,2.7235,2.7235,0,2.7004,2.7003,2.7049,2.7052,2.7053,2.7037,2.7049,2.7041,2.7035,2.7079,2.7037,2.7061,2.7099,2.7101,2.7108,2.7216,2.7182,2.7223,2.729,2.7325,2.7338,2.7349,2.7388,2.7402,2.7231,2.7231,2.7231,0,2.6899,2.6894,2.6913,2.6932,2.6932,2.6961,2.6898,2.6931,2.6952,2.6894,2.6939,2.6933,2.6934,2.6992,2.7017,2.699,2.7117,2.7072,2.7081,2.7082,2.7115,2.7131,2.7145,2.6958,2.6957,2.6956,0,0,2.6849,2.6877,2.6861,2.6917,2.692,2.6896,2.6909,2.6886,2.6889,2.689,2.688,2.6884,2.6905,2.692,2.6938,2.7006,2.7003,2.7039,2.7052,2.7063,2.7071,2.7106,2.7122,2.6953,2.6953,2.6953,0,0,2.6825,2.6809,2.6785,2.6846,2.685,2.6838,2.6872,2.6842,2.6856,2.6848,2.6811,2.681,2.6864,2.6859,2.682,2.6918,2.6864,2.6873,2.6919,2.6935,2.6947,2.6947,2.6753,0,0,0,0,0,2.6748,2.6811,2.6789,2.6796,2.6818,2.685,2.6853,2.6823,2.6786,2.6815,2.6802,2.6764,2.683,2.6795,2.6801,2.6845,2.6912,2.6919,2.6926,2.7001,2.7018,2.7032,0,0,0,0,0,0,2.6751,2.6759,2.6787,2.6778,2.6783,2.6847,2.6778,2.6772,2.6782,2.6775,2.6768,2.6764,2.674,2.6789,2.6796,2.6838,2.6751,2.6915,2.6921,2.6927,2.7007,2.702,2.7032,0,0,0,0,0,2.6752,2.6759,2.6803,2.6777,2.6781,2.6757,2.6775,2.677,2.6777,2.6757,2.6752,2.6754,2.6742,2.6745,2.6793,2.6836,2.6746,2.6749,2.6919,2.6924,2.6928,2.7013,0,0,0,0,0,0,2.6754,2.6753,2.6803,2.6803,2.6751,2.6753,2.6753,2.6768,2.6759,2.6754,2.6741,2.6735,2.6744,2.6746,2.6749,2.6837,2.6742,2.6745,2.6746,2.6923,2.6926,2.693,0,0,0,0,0,0,2.675,2.6754,2.6803,2.6772,2.6768,2.675,2.6749,2.6785,2.6759,2.6743,2.6737,2.6739,2.6739,2.6747,2.6749,2.6806,2.6739,2.6742,2.6743,2.6745,2.6926,2.6929,0,0,0,0,0,0,2.6751,2.6755,2.6771,2.6769,2.6765,2.6765,2.6781,2.6805,2.6733,2.6744,2.6726,2.6722,2.6742,2.6743,2.675,2.6806,2.6806,2.6739,2.6741,2.6742,2.6743,0,0,0,0,0,0,0,2.6752,2.6735,2.6802,2.6766,2.6763,2.6805,2.6805,2.6805,2.6732,2.6729,2.6726,2.6724,2.6725,2.6728,2.6731,2.6806,0,0,2.6739,2.674,0,0,0,0,0,0,0,0,2.6733,2.6735,2.6802,2.6802,2.6802,2.6805,2.6805,2.6805,2.6732,2.6729,2.6727,2.6725,2.6726,2.6728,2.673,0,0,0,0,0,0,0,0,0,0,0,0,0,0,0,2.6802,2.6802,0,2.6805,2.6805,2.6805,2.6731,2.673,2.6728,2.6726,2.6727,2.6728,2.673,0,0,0,0,0,0,0,0,0,0,0,0,0,0,0,0,0,0,0,0,0,0,0,0,0,0,0,0,0,0,0,0,0,0,0,0,0,0,0,0,0,0,0,0,0,0,0,0,0,0,0,0,0,0,0,0,0,0,0,0,0,0,0,0,0,0,0,0,0]}]]]